Location: downtown San Diego
(32.7310°N, 117.1990°W)
Time: 02:41:05
(UTC-07:00)

Gbstr 26 Del rocket - Pass Details

Date: 12 July 2018
Orbit: 493 x 1265 km, 51.8° (Epoch: 20 July)

Event Time Altitude Azimuth Distance (km) Brightness Sun altitude
Rises 21:08:26 0° 213° (SSW) 3,210 6.7 -13.3°
Reaches altitude 10° 21:11:07 10° 208° (SSW) 2,160 5.7 -13.7°
Maximum altitude 21:15:50 52° 133° (SE) 761 3.1 -14.5°
Drops below altitude 10° 21:19:48 10° 57° (ENE) 1,821 5.3 -15.1°
Sets 21:21:54 0° 52° (NE) 2,655 6.2 -15.5°
